Tracking 29059 objects as of 18-Jun-2024
HD Live streaming from Space Station
objects crossing your sky now

ARIANE 5 DEB

Track ARIANE 5 DEB now!


NORAD ID: 43383
Int'l Code: 2008-030F
Perigee: 807.4 km
Apogee: 33,437.3 km
Inclination: 2.4 °
Period: 597.3 minutes
Semi major axis: 23493 km
RCS: Unknown
Launch date: June 12, 2008
Source: France (FR)
Launch site: FRENCH GUIANA (FRGUI)

Note: This is SATELLITE DEBRIS
Your satellite tracking list
Your tracking list is empty




NASA's NSSDC Master Catalog

Two Line Element Set (TLE):
1 43383U 08030F   24169.50657774 -.00001703  00000-0 -65038-1 0  9991
2 43383   2.3525 331.1628 6944478 349.5939   1.2234  2.41093361130249
Source of the keplerian elements: AFSPC